Content
SEND FEEDBACK

Daily
Averages
Monthly
Summary
United States of America

HAMILTON, WASHINGTON


Home > North America > United States > Washington
Elevation: 585 feet     Latitude: 48 32N     Longitude: 121 45W

WEATHER
 
SELECT A DAY
Number of Records: 274,069;   Date Range: 5/6/03 - 8/30/14
 
SHARE

PRINT THIS DATA

[ ← Previous Day ]
WEATHER ALMANAC - FEBRUARY 13, 2013
[ Next Day → ]
[ °C ]   °F
Weather ElementAverageHighLow
Temperature45.5 °F48.2 °F (12:55 pm)42.8 °F (2:55 am)
Dewpoint44.1 °F46.4 °F (12:35 am)41 °F (3:55 am)
Humidity94.9 %100 % (12:35 am)82 % (3:55 pm)
Barometer30.42 in30.51 in (11:55 pm)30.31 in (12:35 am)
Wind Speed5.7 mph13.8 mph (12:55 pm)
Wind Gust19.6 mph (12:55 pm)
Weather ElementAverage
Visibility9.8 mi
Wind DirectionSSW (185.9 °)

Weather ElementTotal
Precipitation0.02 in
Heating Degree Days19.5 (Base 65)
Averaged from 69 records on February 13, 2013
WEATHER CONDITIONS BREAKOUT
WIND DIRECTION BREAKOUT
WEATHER BY HOUR - FEBRUARY 13, 2013
[ °C ]   °F
Local TimeTemperatureDewpointHumidityBarometerVisibilityWind DirectionWind SpeedGust SpeedPrecipitationEventsConditions
12:35 AM46.4 °F46.4 °F100 %30.31 in10.0 miSouth (190°)4.6 mph0.01 inOvercast
12:55 AM46.4 °F46.4 °F100 %30.31 in10.0 miSSW (200°)4.6 mph0.01 inMostly Cloudy
1:15 AM44.6 °F44.6 °F100 %30.32 in10.0 miSouth (180°)3.5 mph0.00 inMostly Cloudy
1:35 AM44.6 °F44.6 °F100 %30.32 in10.0 miSouth (190°)3.5 mph0.00 inOvercast
1:55 AM44.6 °F44.6 °F100 %30.32 in10.0 miSSW (200°)6.9 mph0.00 inOvercast
2:15 AM46.4 °F44.6 °F93 %30.33 in10.0 miSouth (170°)5.8 mph0.00 inOvercast
2:35 AM44.6 °F44.6 °F100 %30.34 in10.0 miSSW (200°)6.9 mph0.00 inOvercast
2:55 AM42.8 °F42.8 °F100 %30.34 in10.0 miSSW (210°)5.8 mph0.00 inScattered Clouds
3:15 AM42.8 °F42.8 °F100 %30.35 in10.0 miSSE (160°)4.6 mph0.00 inPartly Cloudy
3:35 AM42.8 °F42.8 °F100 %30.34 in10.0 miSW (220°)4.6 mph0.00 inPartly Cloudy
3:55 AM44.6 °F41.0 °F87 %30.35 in10.0 miSW (230°)3.5 mph0.00 inClear
4:15 AM44.6 °F42.8 °F93 %30.35 in10.0 miCalm0.00 inClear
4:35 AM44.6 °F42.8 °F93 %30.35 in10.0 miCalm0.00 inClear
4:55 AM44.6 °F42.8 °F93 %30.35 in10.0 miWest (260°)6.9 mph0.00 inMostly Cloudy
5:15 AM44.6 °F41.0 °F87 %30.36 in10.0 miWSW (250°)6.9 mph0.00 inOvercast
5:35 AM44.6 °F41.0 °F87 %30.36 in10.0 miWNW (290°)4.6 mph0.00 inOvercast
5:55 AM44.6 °F42.8 °F93 %30.36 in10.0 miWNW (290°)5.8 mph0.00 inOvercast
6:15 AM44.6 °F42.8 °F93 %30.37 in10.0 miWNW (290°)5.8 mph0.00 inOvercast
6:35 AM44.6 °F42.8 °F93 %30.37 in10.0 miWest (270°)6.9 mph0.00 inOvercast
6:55 AM44.6 °F42.8 °F93 %30.38 in10.0 miWSW (250°)3.5 mph0.00 inOvercast
7:15 AM44.6 °F42.8 °F93 %30.38 in10.0 miCalm0.00 inOvercast
7:35 AM44.6 °F42.8 °F93 %30.39 in10.0 miSW (220°)4.6 mph0.00 inOvercast
8:15 AM44.6 °F44.6 °F100 %30.40 in10.0 miEast (90°)3.5 mph0.00 inOvercast
8:35 AM44.6 °F44.6 °F100 %30.41 in10.0 miESE (120°)3.5 mph0.00 inOvercast
8:55 AM44.6 °F44.6 °F100 %30.41 in10.0 miSE (130°)3.5 mph0.00 inOvercast
9:15 AM46.4 °F44.6 °F93 %30.42 in10.0 miSW (220°)6.9 mph0.00 inOvercast
9:35 AM46.4 °F46.4 °F100 %30.42 in9.0 miSW (220°)8.1 mph0.00 inOvercast
9:55 AM46.4 °F44.6 °F93 %30.42 in10.0 miSW (220°)6.9 mph0.00 inOvercast
10:15 AM46.4 °F44.6 °F93 %30.43 in10.0 miWSW (240°)6.9 mph0.00 inMostly Cloudy
10:35 AM46.4 °F46.4 °F100 %30.43 in10.0 miSW (220°)9.2 mph0.00 inOvercast
10:55 AM46.4 °F44.6 °F93 %30.44 in8.0 miWSW (250°)4.6 mph0.00 inOvercast
11:15 AM46.4 °F46.4 °F100 %30.44 in5.0 miSW (230°)6.9 mph0.00 inOvercast
11:35 AM46.4 °F46.4 °F100 %30.44 in8.0 miSW (220°)8.1 mph0.00 inOvercast
11:55 AM46.4 °F46.4 °F100 %30.45 in8.0 miWSW (240°)8.1 mph0.00 inOvercast
12:15 PM46.4 °F44.6 °F93 %30.44 in10.0 miSW (230°)6.9 mph0.00 inOvercast
12:35 PM46.4 °F44.6 °F93 %30.45 in10.0 miSW (230°)6.9 mph0.00 inOvercast
12:55 PM48.2 °F44.6 °F87 %30.44 in10.0 miSW (220°)13.8 mph19.6 mph0.00 inOvercast
1:15 PM48.2 °F44.6 °F87 %30.44 in10.0 miSW (220°)12.7 mph17.3 mph0.00 inOvercast
1:35 PM46.4 °F44.6 °F93 %30.44 in10.0 miSW (220°)8.1 mph0.00 inOvercast
1:55 PM48.2 °F44.6 °F87 %30.44 in10.0 miSSW (210°)11.5 mph0.00 inOvercast
2:15 PM48.2 °F44.6 °F87 %30.44 in10.0 miSW (220°)10.4 mph0.00 inOvercast
2:35 PM48.2 °F44.6 °F87 %30.44 in10.0 miSSW (210°)10.4 mph0.00 inOvercast
2:55 PM48.2 °F44.6 °F87 %30.43 in10.0 miSSW (200°)8.1 mph0.00 inOvercast
3:15 PM48.2 °F44.6 °F87 %30.44 in10.0 miSouth (190°)8.1 mph0.00 inOvercast
3:35 PM48.2 °F46.4 °F93 %30.44 in10.0 miSouth (180°)5.8 mph0.00 inOvercast
3:55 PM48.2 °F42.8 °F82 %30.44 in10.0 miSouth (190°)6.9 mph0.00 inOvercast
4:15 PM46.4 °F44.6 °F93 %30.44 in10.0 miSouth (190°)4.6 mph0.00 inOvercast
4:35 PM46.4 °F42.8 °F87 %30.44 in10.0 miSSW (210°)6.9 mph0.00 inOvercast
4:55 PM46.4 °F42.8 °F87 %30.44 in10.0 miSW (220°)9.2 mph0.00 inOvercast
5:15 PM46.4 °F42.8 °F87 %30.45 in10.0 miSouth (190°)4.6 mph0.00 inOvercast
5:35 PM46.4 °F42.8 °F87 %30.45 in10.0 miSSE (160°)3.5 mph0.00 inOvercast
5:55 PM46.4 °F42.8 °F87 %30.45 in10.0 miSE (140°)5.8 mph0.00 inOvercast
6:15 PM44.6 °F42.8 °F93 %30.45 in10.0 miSSE (160°)6.9 mph0.00 inOvercast
6:35 PM44.6 °F44.6 °F100 %30.45 in10.0 miSSE (150°)5.8 mph0.00 inMostly Cloudy
6:55 PM44.6 °F44.6 °F100 %30.45 in10.0 miSouth (180°)5.8 mph0.00 inMostly Cloudy
7:15 PM44.6 °F44.6 °F100 %30.46 in10.0 miSouth (170°)4.6 mph0.00 inOvercast
7:35 PM44.6 °F44.6 °F100 %30.47 in10.0 miSouth (180°)3.5 mph0.00 inOvercast
7:55 PM44.6 °F44.6 °F100 %30.47 in10.0 miSE (130°)5.8 mph0.00 inOvercast
8:15 PM44.6 °F44.6 °F100 %30.47 in10.0 miSE (140°)4.6 mph0.00 inOvercast
8:35 PM44.6 °F44.6 °F100 %30.48 in10.0 miSSE (160°)3.5 mph0.00 inOvercast
8:55 PM44.6 °F44.6 °F100 %30.47 in10.0 miSSE (160°)5.8 mph0.00 inOvercast
9:15 PM44.6 °F44.6 °F100 %30.48 in10.0 miSouth (180°)3.5 mph0.00 inOvercast
9:35 PM44.6 °F44.6 °F100 %30.48 in10.0 miSSE (160°)3.5 mph0.00 inOvercast
9:55 PM42.8 °F42.8 °F100 %30.49 in10.0 miCalm0.00 inOvercast
10:15 PM42.8 °F42.8 °F100 %30.49 in10.0 miSouth (170°)4.6 mph0.00 inOvercast
10:35 PM44.6 °F44.6 °F100 %30.49 in10.0 miSE (130°)3.5 mph0.00 inOvercast
11:15 PM44.6 °F44.6 °F100 %30.50 in10.0 miSSE (150°)4.6 mph0.00 inOvercast
11:35 PM42.8 °F42.8 °F100 %30.50 in10.0 miSSE (160°)3.5 mph0.00 inOvercast
11:55 PM44.6 °F44.6 °F100 %30.51 in10.0 miSSE (150°)4.6 mph0.00 inOvercast
Hourly data recorded from KBVS, located miles away from Hamilton, Washington







STORIES FROM OUR PARTNERS